Regional Weather Roundup
Issued by NWS

Home | Current Version | Previous Version | Graphics & Text | Print | Product List | Glossary On
Versions: 1 2 3 4 5 6 7 8 9 10 11 12 13 14 15 16 17 18 19 20 21 22 23 24 25 26 27 28 29 30 31 32 33 34 35 36 37 38 39 40 41 42 43 44 45 46 47 48 49 50
000
ASUS43 KOAX 190210
RWRNE

WEATHER ROUNDUP FOR NEBRASKA
NATIONAL WEATHER SERVICE OMAHA NE
800 PM CST THU DEC 18 2014

NOTES: SATELLITE DATA IS BEING USED TO AUGMENT CLOUD COVER ABOVE
       12000 FEET.
       "FAIR" INDICATES FEW OR NO CLOUDS BELOW 12,000 FEET WITH NO
       SIGNIFICANT WEATHER AND/OR OBSTRUCTIONS TO VISIBILITY.

  * THESE STATIONS DO NOT REPORT WEATHER SUCH AS RAIN...SNOW OR FOG.

NEZ001>004-019>022-054>056-190300-
NEBRASKA PANHANDLE

CITY           SKY/WX    TMP DP  RH WIND       PRES   REMARKS
SCOTTSBLUFF    CLOUDY    13  10  88 CALM      30.07R
ALLIANCE       MOCLDY    16  13  88 W3        30.04R
CHADRON        PTCLDY    18  14  84 SW7       30.05R WCI   9
KIMBALL        MOCLDY    34  21  58 NW12G17   30.04R WCI  25
SIDNEY         PTCLDY    27  20  75 W8        30.07R WCI  19
$$

NEZ057>060-069>072-079>082-190300-
SOUTHWEST NEBRASKA

CITY           SKY/WX    TMP DP  RH WIND       PRES   REMARKS
NORTH PLATTE   FOG       19  17  92 CALM      30.10R VSB 1/2
IMPERIAL       PTCLDY    23  20  88 SW6       30.09S FOG     WCI  16
LEXINGTON      CLOUDY    30  28  90 SW5       30.13S WCI  25
MCCOOK         CLOUDY    29  26  89 SW6       30.13R WCI  23
OGALLALA       PTCLDY    18  16  93 CALM      30.09R
$$

NEZ005>010-023>029-035>040-094-190300-
NORTH CENTRAL NEBRASKA

CITY           SKY/WX    TMP DP  RH WIND       PRES   REMARKS
VALENTINE      PTCLDY    15  13  91 NW5       30.07R FOG     WCI   8
AINSWORTH      FOG       17  16  94 S6        30.08R VSB 1/4 WCI   9
BROKEN BOW     CLOUDY    29  26  89 SW7       30.11R FOG     WCI  22
O`NEILL        CLOUDY    28  27  94 S3        30.12S
THEDFORD       PTCLDY    20  19  95 CALM      30.08R FOG
$$

NEZ041-046>049-061>064-073>077-083>087-190300-
SOUTH CENTRAL NEBRASKA

CITY           SKY/WX    TMP DP  RH WIND       PRES   REMARKS
GRAND ISLAND   CLOUDY    29  25  85 SW7       30.17S WCI  22
AURORA         CLOUDY    30  28  92 S3        30.17S
HASTINGS       CLOUDY    30  25  81 VRB5      30.16R WCI  25
HEBRON         CLOUDY    30  26  84 CALM      30.21R
HOLDREGE       CLOUDY    28  26  89 W5        30.15R WCI  23
KEARNEY *      CLOUDY    28  23  80 SW5       30.15S WCI  23
YORK           MOCLDY    28  27  93 S3        30.19R
$$

NEZ011>018-030>034-042>045-190300-
NORTHEAST NEBRASKA

CITY           SKY/WX    TMP DP  RH WIND       PRES   REMARKS
NORFOLK        CLOUDY    29  25  85 S5        30.17S WCI  24
ALBION         CLOUDY    29  25  86 S5        30.16S WCI  23
BLAIR          CLOUDY    31  27  85 SE3       30.20S
COLUMBUS *     CLOUDY    28  21  74 S5        30.20S WCI  23
FREMONT        CLOUDY    32  28  85 SE5       30.21S WCI  27
TEKAMAH        CLOUDY    31  26  82 SE6       30.22S WCI  25
WAYNE          CLOUDY    30  26  87 S6        30.19S WCI  24
$$

NEZ050>053-065>068-078-088>093-190300-
SOUTHEAST NEBRASKA

CITY           SKY/WX    TMP DP  RH WIND       PRES   REMARKS
LINCOLN        CLOUDY    32  27  81 S3        30.22S
OMAHA EPPLEY   CLOUDY    31  26  82 SE5       30.24R WCI  26
BEATRICE       CLOUDY    31  28  88 CALM      30.21R
FALLS CITY     CLOUDY    29  27  92 CALM      30.23S
NEBRASKA CITY  CLOUDY    30  29  96 CALM      30.22S
PLATTSMOUTH    CLOUDY    30  26  86 CALM      30.22S
$$

NEZ044-045-051>053-067-190300-
OMAHA AREA

CITY           SKY/WX    TMP DP  RH WIND       PRES   REMARKS
OMAHA EPPLEY   CLOUDY    31  26  82 SE5       30.24R WCI  26
BLAIR          CLOUDY    31  27  85 SE3       30.20S
FREMONT        CLOUDY    32  28  85 SE5       30.21S WCI  27
MILLARD        CLOUDY    31  27  84 SE3       30.22S
OFFUTT AFB     CLOUDY    31  27  86 SE5       30.23R WCI  26
PLATTSMOUTH    CLOUDY    30  26  86 CALM      30.22S
WAHOO          CLOUDY    31  28  86 SE5       30.21S WCI  26
$$



USA.gov is the U.S. government's official web portal to all federal, state and local government web resources and services.